Simultaneous Nadir Overpasses (SNOs) Predictions

Prediction of SNOs between GOES-16 and TERRA Satellite Orbit:

Table of predicted SNOs for the next 14.0 days since TLE Epoch: 4/18/2025
Index Date Time (GOES-16) GOES-16 Lat,Lon TERRA Lat,Lon Distance(km) Time Diff (sec)
1 04/19/2025 02:29:21 -0.06, -79.55 0.62, -76.15 385.99 80
2 04/19/2025 14:51:31 0.06, -79.83 0.29, -80.91 122.71 80
3 04/22/2025 02:52:15 -0.06, -81.07 -0.06, -81.17 11.76 80
4 04/24/2025 14:50:08 0.05, -82.35 -0.17, -81.39 109.96 80
5 04/25/2025 03:12:28 -0.05, -82.59 -0.80, -86.18 407.36 80
6 04/27/2025 02:50:50 -0.05, -83.60 0.35, -81.64 223.26 80
7 04/27/2025 15:13:00 0.05, -83.89 0.57, -86.39 284.67 80
8 04/29/2025 14:51:22 0.05, -84.90 -0.61, -81.85 346.09 80
9 04/30/2025 03:13:41 -0.05, -85.14 -0.34, -86.65 171.11 80
10 05/02/2025 02:52:03 -0.04, -86.15 0.82, -82.10 460.08 80
11 05/02/2025 15:14:11 0.04, -86.43 0.16, -86.85 47.73 80
